Location: Alfortville
(48.8058°N, 2.4204°E)
Time: 04:37:42
(UTC+00:00)

Cosmos 1980 Rocket - Pass Details

Date: 28 May 2022
Orbit: 827 x 851 km, 71.0° (Epoch: 06 July)

Event Time Altitude Azimuth Distance (km) Brightness Sun altitude
Rises 21:34:52 0° 234° (SW) 3,378 5.3 -13.6°
Reaches altitude 10° 21:37:29 10° 243° (WSW) 2,451 4.7 -13.9°
Maximum altitude 21:42:39 36° 310° (NW) 1,303 3.8 -14.3°
Drops below altitude 10° 21:47:54 10° 17° (NNE) 2,479 5.3 -14.7°
Sets 21:50:34 0° 26° (NNE) 3,421 5.9 -14.9°
